N716SC KPHX-KSDL

Flight info

Callsign N716SC
Flight time 0h 10m
Altitude VFR
Route VFR NORTHBOUND
Aircraft C172/L-DOV/C

Departure

Time 2026-04-22 03:26
Airport Phoenix Sky Harbor International Airport (KPHX)

Arrival

Time 2026-04-22 03:36
Airport Scottsdale Airport (KSDL)
Time Latitude Longitude Altitude Speed Heading
2026-04-22 03:19 33.43868 -111.99616 1126 ft 14 kts 92°
2026-04-22 03:19 33.43904 -111.99523 1127 ft 14 kts 91°
2026-04-22 03:19 33.43904 -111.99398 1127 ft 14 kts 90°
2026-04-22 03:20 33.43904 -111.99295 1127 ft 5 kts 91°
2026-04-22 03:20 33.43910 -111.99247 1123 ft 7 kts 46°
2026-04-22 03:20 33.43958 -111.99229 1128 ft 8 kts 355°
2026-04-22 03:20 33.43985 -111.99229 1132 ft 0 kts 351°
2026-04-22 03:24 33.43995 -111.99231 1131 ft 7 kts
2026-04-22 03:24 33.44076 -111.99262 1135 ft 19 kts 294°
2026-04-22 03:24 33.44083 -111.99530 1133 ft 52 kts 270°
2026-04-22 03:25 33.44087 -112.00086 1169 ft 76 kts 267°
2026-04-22 03:25 33.44099 -112.00710 1367 ft 76 kts 267°
2026-04-22 03:25 33.44105 -112.01322 1582 ft 74 kts 272°
2026-04-22 03:25 33.44091 -112.01937 1708 ft 75 kts 266°
2026-04-22 03:26 33.44110 -112.02522 1855 ft 67 kts 264°
2026-04-22 03:26 33.44097 -112.03100 1930 ft 72 kts 266°
2026-04-22 03:26 33.44208 -112.03637 2121 ft 76 kts 308°
2026-04-22 03:26 33.44739 -112.03806 2302 ft 90 kts 355°
2026-04-22 03:27 33.45333 -112.03532 2481 ft 100 kts 29°
2026-04-22 03:27 33.45896 -112.02935 2605 ft 109 kts 31°
2026-04-22 03:27 33.46466 -112.02360 2812 ft 105 kts 33°
2026-04-22 03:27 33.47012 -112.01781 2995 ft 106 kts 40°
2026-04-22 03:28 33.47544 -112.01159 3165 ft 107 kts 39°
2026-04-22 03:28 33.48076 -112.00518 3338 ft 109 kts 40°
2026-04-22 03:28 33.48594 -111.99861 3501 ft 112 kts 45°
2026-04-22 03:28 33.49175 -111.99175 3496 ft 120 kts 38°
2026-04-22 03:29 33.49801 -111.98493 3470 ft 125 kts 36°
2026-04-22 03:29 33.50437 -111.97833 3561 ft 118 kts 34°
2026-04-22 03:29 33.51090 -111.97207 3540 ft 123 kts 37°
2026-04-22 03:29 33.51753 -111.96538 3564 ft 128 kts 34°
2026-04-22 03:30 33.52458 -111.95844 3468 ft 132 kts 34°
2026-04-22 03:30 33.53188 -111.95178 3435 ft 130 kts 26°
2026-04-22 03:30 33.53955 -111.94787 3508 ft 114 kts
2026-04-22 03:30 33.54709 -111.94552 3437 ft 110 kts
2026-04-22 03:31 33.55421 -111.94260 3465 ft 111 kts 20°
2026-04-22 03:31 33.56067 -111.93719 3498 ft 115 kts 37°
2026-04-22 03:31 33.56659 -111.93094 3558 ft 112 kts 38°
2026-04-22 03:31 33.57247 -111.92500 3506 ft 115 kts 35°
2026-04-22 03:32 33.57855 -111.91877 3381 ft 118 kts 39°
2026-04-22 03:32 33.58474 -111.91155 3108 ft 129 kts 43°
2026-04-22 03:32 33.59099 -111.90393 2921 ft 124 kts 43°
2026-04-22 03:32 33.59687 -111.89659 2706 ft 119 kts 44°
2026-04-22 03:33 33.60206 -111.88942 2527 ft 108 kts 47°
2026-04-22 03:33 33.60660 -111.88277 2399 ft 104 kts 51°
2026-04-22 03:33 33.61137 -111.87610 2264 ft 107 kts 35°
2026-04-22 03:33 33.61774 -111.87368 2193 ft 90 kts 352°
2026-04-22 03:34 33.62344 -111.87478 2103 ft 83 kts 332°
2026-04-22 03:34 33.62892 -111.87731 2225 ft 87 kts 324°
2026-04-22 03:34 33.63439 -111.88126 2153 ft 90 kts 317°
2026-04-22 03:34 33.63817 -111.88614 2021 ft 69 kts 278°
2026-04-22 03:35 33.63801 -111.89128 1861 ft 61 kts 252°
2026-04-22 03:35 33.63552 -111.89596 1773 ft 67 kts 229°
2026-04-22 03:35 33.63230 -111.89971 1599 ft 62 kts 227°
2026-04-22 03:35 33.62934 -111.90311 1513 ft 51 kts 229°
2026-04-22 03:36 33.62738 -111.90539 1498 ft 18 kts 224°
2026-04-22 03:36 33.62661 -111.90627 1491 ft 13 kts 224°
2026-04-22 03:36 33.62630 -111.90693 1495 ft 6 kts 321°
2026-04-22 03:36 33.62669 -111.90696 1495 ft 0 kts
2026-04-22 03:37 33.62670 -111.90697 1495 ft 0 kts 328°
2026-04-22 03:38 33.62673 -111.90699 1495 ft 4 kts 341°
2026-04-22 03:38 33.62729 -111.90710 1483 ft 11 kts 25°
2026-04-22 03:38 33.62819 -111.90694 1494 ft 12 kts 359°
2026-04-22 03:38 33.62843 -111.90694 1495 ft 0 kts 358°